Overview Statistics Trail Chart Weather Telemetry Raw packets
 

This is the latest recevied weather packets stored in our database for station/object 4S6DRJ-13. If no packets are shown the sender has not sent any weather packets the latest 10 day(s).

<< 451 452 453 454 455 456 457 >>
Time Temp. Humidity Pressure Rain* Wind** Luminosity Snow
1787769534 25.56° C 94% 1011.1 hPa 0 mm 0.45 m/s, 163° 0 W/m² -
1787769473 25.56° C 94% 1011.1 hPa 0 mm 0 m/s 0 W/m² -
1787769412 25.56° C 94% 1011.2 hPa 0 mm 0.45 m/s, 126° 0 W/m² -
1787769351 25.56° C 94% 1011.2 hPa 0 mm 1.34 m/s, 133° 0 W/m² -
1787769290 25.56° C 94% 1011.2 hPa 0 mm 0 m/s 0 W/m² -
1787769229 25.56° C 94% 1011.1 hPa 0 mm 0.45 m/s, 168° 0 W/m² -
1787769169 25.56° C 94% 1011.2 hPa 0 mm 1.34 m/s, 119° 0 W/m² -
1787769107 25.56° C 94% 1011.4 hPa 0 mm 1.34 m/s, 128° 0 W/m² -
1787769046 25.56° C 94% 1011.3 hPa 0 mm 1.34 m/s, 113° 0 W/m² -
1787768985 25.56° C 94% 1011.2 hPa 0 mm 1.79 m/s, 124° 0 W/m² -
1787768924 25.56° C 94% 1011.2 hPa 0 mm 1.79 m/s, 89° 0 W/m² -
1787768863 25.56° C 94% 1011.3 hPa 0 mm 2.24 m/s, 122° 0 W/m² -
1787768802 25.56° C 94% 1011.5 hPa 0 mm 0.89 m/s, 99° 0 W/m² -
1787768741 25.56° C 94% 1011.3 hPa 0 mm 1.34 m/s, 117° 0 W/m² -
1787768680 25.56° C 94% 1011.4 hPa 0 mm 0.89 m/s, 137° 0 W/m² -
1787768620 25.56° C 94% 1011.5 hPa 0 mm 0.45 m/s, 103° 0 W/m² -
1787768558 25.56° C 94% 1011.3 hPa 0 mm 0.89 m/s, 110° 0 W/m² -
1787768497 25.56° C 94% 1011.4 hPa 0 mm 0.89 m/s, 104° 0 W/m² -
1787768436 25.56° C 94% 1011.6 hPa 0 mm 0.89 m/s, 119° 0 W/m² -
1787768375 25.56° C 94% 1011.5 hPa 0 mm 0.89 m/s, 119° 0 W/m² -
1787768314 25.56° C 94% 1011.6 hPa 0 mm 0.89 m/s, 121° 0 W/m² -
1787768253 25.56° C 94% 1011.4 hPa 0 mm 0.45 m/s, 105° 0 W/m² -
1787768192 25.56° C 94% 1011.4 hPa 0 mm 0.45 m/s, 139° 0 W/m² -
1787768132 25.56° C 94% 1011.3 hPa 0 mm 0.45 m/s, 140° 0 W/m² -
1787768070 25.56° C 94% 1011.5 hPa 0 mm 0.45 m/s, 148° 0 W/m² -

* Rain latest hour (hover to see other rain measurements)
** Current wind speed in m/s (hover to see current wind gust speed)